| time (UTC) | temp F | wind direction | speed knots | gust knots | rain 1hr in | rain 24hr in | rain mn in | humidity % | barometer mb |
| 20260510174529 | 81 | 265 | 0.9 | 4.3 | 0.00 | 0.00 | 0.00 | 48 | 1013.1 |
| 20260510173033 | 81 | 251 | 0.9 | 3.5 | 0.00 | 0.00 | 0.00 | 51 | 1013.0 |
| 20260510171540 | 80 | 359 | 1.7 | 6.1 | 0.00 | 0.00 | 0.00 | 47 | 1013.0 |
| 20260510170031 | 80 | 229 | 1.7 | 4.3 | 0.00 | 0.00 | 0.00 | 52 | 1013.2 |
| 20260510164531 | 79 | 290 | 0.9 | 2.6 | 0.00 | 0.00 | 0.00 | 49 | 1013.3 |
| 20260510163028 | 77 | 104 | 0.9 | 4.3 | 0.00 | 0.00 | 0.00 | 57 | 1013.2 |
| 20260510161532 | 77 | 259 | 0.9 | 6.1 | 0.00 | 0.00 | 0.00 | 56 | 1013.4 |
| 20260510160043 | 77 | 260 | 1.7 | 6.1 | 0.00 | 0.00 | 0.00 | 55 | 1013.5 |
| 20260510154547 | 76 | 235 | 0.9 | 7.0 | 0.00 | 0.00 | 0.00 | 56 | 1013.5 |
| 20260510153043 | 75 | 219 | 2.6 | 7.8 | 0.00 | 0.00 | 0.00 | 56 | 1013.5 |
| 20260510151532 | 75 | 240 | 1.7 | 5.2 | 0.00 | 0.00 | 0.00 | 60 | 1013.5 |
| 20260510150033 | 73 | 226 | 1.7 | 4.3 | 0.00 | 0.00 | 0.00 | 62 | 1013.3 |
| 20260510144545 | 72 | 66 | 1.7 | 7.0 | 0.00 | 0.00 | 0.00 | 65 | 1013.1 |
| 20260510143032 | 70 | 307 | 0.9 | 5.2 | 0.00 | 0.00 | 0.00 | 72 | 1013.2 |
| 20260510141533 | 68 | 293 | 0.9 | 4.3 | 0.00 | 0.00 | 0.00 | 77 | 1013.4 |
| 20260510140032 | 67 | 0 | 0.0 | 2.6 | 0.00 | 0.00 | 0.00 | 78 | 1013.4 |
| 20260510134532 | 66 | 240 | 0.9 | 2.6 | 0.00 | 0.00 | 0.00 | 79 | 1013.3 |
| 20260510133032 | 64 | 8 | 0.9 | 2.6 | 0.00 | 0.00 | 0.00 | 81 | 1013.3 |
| 20260510131533 | 63 | 0 | 0.0 | 1.7 | 0.00 | 0.00 | 0.00 | 86 | 1013.6 |
| 20260510130032 | 61 | 162 | 0.0 | 1.7 | 0.00 | 0.00 | 0.00 | 90 | 1013.7 |
| 20260510124534 | 59 | 291 | 0.0 | 0.9 | 0.00 | 0.00 | 0.00 | 93 | 1013.5 |
| 20260510123033 | 57 | 0 | 0.0 | 2.6 | 0.00 | 0.00 | 0.00 | 97 | 1013.5 |
| 20260510121531 | 56 | 35 | 0.0 | 1.7 | 0.00 | 0.00 | 0.00 | 98 | 1013.3 |
| 20260510120032 | 55 | 43 | 0.0 | 1.7 | 0.00 | 0.00 | 0.00 | 99 | 1013.3 |
| 20260510114530 | 54 | 241 | 0.0 | 0.9 | 0.00 | 0.00 | 0.00 | 99 | 1013.3 |
| 20260510113033 | 53 | 0 | 0.0 | 0.0 | 0.00 | 0.00 | 0.00 | 99 | 1012.8 |
| 20260510111543 | 53 | 0 | 0.0 | 0.9 | 0.00 | 0.00 | 0.00 | 100 | 1012.6 |
| 20260510110033 | 51 | 0 | 0.0 | 0.9 | 0.00 | 0.00 | 0.00 | 99 | 1012.4 |
| 20260510104536 | 50 | 0 | 0.0 | 0.0 | 0.00 | 0.00 | 0.00 | 99 | 1012.0 |
| 20260510103031 | 47 | 0 | 0.0 | 1.7 | 0.00 | 0.00 | 0.00 | 98 | 1011.6 |
| 20260510101532 | 46 | 0 | 0.0 | 0.0 | 0.00 | 0.00 | 0.00 | 98 | 1011.7 |
| 20260510100033 | 46 | 0 | 0.0 | 0.0 | 0.00 | 0.00 | 0.00 | 97 | 1011.9 |
| 20260510094533 | 48 | 0 | 0.0 | 0.0 | 0.00 | 0.00 | 0.00 | 98 | 1011.9 |
| 20260510093032 | 49 | 0 | 0.0 | 0.9 | 0.00 | 0.00 | 0.00 | 98 | 1011.8 |
| 20260510091533 | 48 | 219 | 0.0 | 0.9 | 0.00 | 0.00 | 0.00 | 98 | 1011.5 |
| 20260510090032 | 48 | 0 | 0.0 | 0.9 | 0.00 | 0.00 | 0.00 | 98 | 1011.4 |
| 20260510084545 | 48 | 0 | 0.0 | 0.0 | 0.00 | 0.00 | 0.00 | 98 | 1011.0 |
| 20260510083038 | 49 | 0 | 0.0 | 0.0 | 0.00 | 0.00 | 0.00 | 98 | 1010.8 |
| 20260510081535 | 49 | 0 | 0.0 | 0.0 | 0.00 | 0.00 | 0.00 | 98 | 1010.6 |
| 20260510080030 | 49 | 0 | 0.0 | 0.0 | 0.00 | 0.00 | 0.00 | 97 | 1010.7 |
| 20260510074538 | 49 | 0 | 0.0 | 0.9 | 0.00 | 0.00 | 0.00 | 98 | 1010.6 |
| 20260510073045 | 49 | 0 | 0.0 | 0.0 | 0.00 | 0.00 | 0.00 | 98 | 1010.3 |
| 20260510071532 | 49 | 0 | 0.0 | 0.0 | 0.00 | 0.00 | 0.00 | 97 | 1010.3 |
| 20260510070036 | 49 | 0 | 0.0 | 0.0 | 0.00 | 0.00 | 0.00 | 97 | 1010.2 |
| 20260510064532 | 50 | 0 | 0.0 | 0.0 | 0.00 | 0.00 | 0.00 | 97 | 1010.2 |
| 20260510063033 | 49 | 0 | 0.0 | 0.0 | 0.00 | 0.00 | 0.00 | 97 | 1010.1 |
| 20260510061531 | 50 | 0 | 0.0 | 0.0 | 0.00 | 0.00 | 0.00 | 96 | 1010.5 |
| 20260510060039 | 50 | 0 | 0.0 | 0.0 | 0.00 | 0.00 | 0.00 | 97 | 1010.4 |
| 20260510054531 | 51 | 0 | 0.0 | 0.0 | 0.00 | 0.00 | 0.00 | 96 | 1010.4 |
| 20260510053032 | 51 | 0 | 0.0 | 0.0 | 0.00 | 0.00 | 0.00 | 96 | 1010.4 |
| 20260510051536 | 51 | 0 | 0.0 | 0.0 | 0.00 | 0.00 | 0.00 | 96 | 1010.6 |
| 20260510050034 | 51 | 0 | 0.0 | 0.0 | 0.00 | 0.00 | 0.00 | 96 | 1010.8 |
| 20260510044532 | 51 | 0 | 0.0 | 0.0 | 0.00 | 0.00 | 0.00 | 95 | 1010.9 |
| 20260510043031 | 51 | 0 | 0.0 | 0.0 | 0.00 | 0.00 | 0.00 | 96 | 1010.8 |
| 20260510041534 | 51 | 0 | 0.0 | 0.0 | 0.00 | 0.00 | 0.00 | 95 | 1010.8 |
| 20260510040033 | 51 | 0 | 0.0 | 0.0 | 0.00 | 0.00 | 0.00 | 94 | 1010.8 |
| 20260510034559 | 52 | 0 | 0.0 | 0.0 | 0.00 | 0.00 | 0.00 | 95 | 1010.8 |
| 20260510033030 | 52 | 0 | 0.0 | 0.0 | 0.00 | 0.00 | 0.00 | 94 | 1010.8 |
| 20260510031535 | 52 | 0 | 0.0 | 0.0 | 0.00 | 0.00 | 0.00 | 93 | 1010.6 |
| 20260510030035 | 53 | 0 | 0.0 | 0.0 | 0.00 | 0.00 | 0.00 | 94 | 1010.6 |
| 20260510024534 | 53 | 0 | 0.0 | 0.0 | 0.00 | 0.00 | 0.00 | 93 | 1010.4 |
| 20260510023040 | 53 | 0 | 0.0 | 0.0 | 0.00 | 0.00 | 0.00 | 93 | 1010.3 |
| 20260510021535 | 53 | 0 | 0.0 | 0.0 | 0.00 | 0.00 | 0.00 | 93 | 1010.3 |
| 20260510020030 | 53 | 0 | 0.0 | 0.0 | 0.00 | 0.00 | 0.00 | 91 | 1010.3 |
| 20260510014529 | 53 | 0 | 0.0 | 0.0 | 0.00 | 0.00 | 0.00 | 91 | 1010.2 |
| 20260510013032 | 54 | 0 | 0.0 | 0.0 | 0.00 | 0.00 | 0.00 | 91 | 1010.1 |
| 20260510011531 | 54 | 0 | 0.0 | 0.0 | 0.00 | 0.00 | 0.00 | 89 | 1010.0 |
| 20260510010032 | 55 | 0 | 0.0 | 0.0 | 0.00 | 0.00 | 0.00 | 87 | 1009.9 |
| 20260510004532 | 56 | 0 | 0.0 | 0.0 | 0.00 | 0.00 | 0.00 | 85 | 1009.8 |
| 20260510003031 | 58 | 0 | 0.0 | 0.9 | 0.00 | 0.00 | 0.00 | 84 | 1009.8 |
| 20260510001531 | 59 | 0 | 0.0 | 1.7 | 0.00 | 0.00 | 0.00 | 82 | 1009.7 |
| 20260510000035 | 60 | 86 | 1.7 | 4.3 | 0.00 | 0.00 | 0.00 | 81 | 1009.8 |
| 20260509234537 | 60 | 91 | 0.0 | 4.3 | 0.00 | 0.00 | 0.00 | 80 | 1009.8 |
| 20260509233030 | 61 | 92 | 0.9 | 4.3 | 0.00 | 0.00 | 0.00 | 78 | 1009.8 |
| 20260509231530 | 62 | 97 | 2.6 | 5.2 | 0.00 | 0.00 | 0.00 | 78 | 1009.6 |
| 20260509230032 | 62 | 101 | 2.6 | 7.0 | 0.00 | 0.00 | 0.00 | 77 | 1009.4 |
| 20260509224539 | 64 | 97 | 1.7 | 4.3 | 0.00 | 0.00 | 0.00 | 75 | 1009.6 |
| 20260509223030 | 64 | 94 | 1.7 | 4.3 | 0.00 | 0.00 | 0.00 | 75 | 1009.5 |
| 20260509221533 | 65 | 98 | 1.7 | 4.3 | 0.00 | 0.00 | 0.00 | 74 | 1009.5 |
| 20260509220031 | 66 | 94 | 1.7 | 3.5 | 0.00 | 0.00 | 0.00 | 74 | 1009.5 |
| 20260509214533 | 67 | 94 | 0.9 | 2.6 | 0.00 | 0.00 | 0.00 | 73 | 1009.3 |
| 20260509213031 | 67 | 0 | 0.0 | 2.6 | 0.00 | 0.00 | 0.00 | 72 | 1009.2 |
| 20260509211530 | 67 | 89 | 0.0 | 2.6 | 0.00 | 0.00 | 0.00 | 72 | 1009.2 |
| 20260509210038 | 68 | 0 | 0.0 | 2.6 | 0.00 | 0.00 | 0.00 | 71 | 1009.1 |
| 20260509204532 | 68 | 107 | 0.9 | 1.7 | 0.00 | 0.00 | 0.00 | 70 | 1009.2 |
| 20260509203032 | 69 | 46 | 0.0 | 2.6 | 0.00 | 0.00 | 0.00 | 70 | 1009.5 |
| 20260509201532 | 69 | 32 | 0.0 | 2.6 | 0.00 | 0.00 | 0.00 | 69 | 1009.6 |
| 20260509200034 | 69 | 68 | 0.0 | 3.5 | 0.00 | 0.00 | 0.00 | 69 | 1009.4 |
| 20260509194535 | 68 | 0 | 0.0 | 2.6 | 0.00 | 0.00 | 0.00 | 70 | 1009.5 |
| 20260509193032 | 68 | 0 | 0.0 | 3.5 | 0.00 | 0.00 | 0.00 | 70 | 1009.8 |
| 20260509191532 | 68 | 0 | 0.0 | 3.5 | 0.00 | 0.00 | 0.00 | 70 | 1009.5 |
| 20260509190033 | 67 | 299 | 0.9 | 4.3 | 0.00 | 0.00 | 0.00 | 71 | 1010.1 |
| 20260509184538 | 66 | 0 | 0.0 | 1.7 | 0.00 | 0.00 | 0.00 | 73 | 1010.4 |
| 20260509183031 | 66 | 27 | 0.0 | 3.5 | 0.00 | 0.00 | 0.00 | 71 | 1010.6 |
| 20260509181541 | 66 | 350 | 0.9 | 3.5 | 0.00 | 0.00 | 0.00 | 71 | 1010.7 |
| 20260509180033 | 66 | 0 | 0.0 | 1.7 | 0.00 | 0.00 | 0.00 | 71 | 1010.7 |